TimeCST,TemperatureF,Dew PointF,Humidity,Sea Level PressureIn,VisibilityMPH,Wind Direction,Wind SpeedMPH,Gust SpeedMPH,PrecipitationIn,Events,Conditions,WindDirDegrees,DateUTC
12:15 AM,17.6,14.0,86,30.19,9.0,Calm,Calm,-,N/A,,Clear,0,2013-01-16 06:15:00
12:35 AM,17.6,14.0,86,30.19,8.0,Calm,Calm,-,N/A,,Clear,0,2013-01-16 06:35:00
12:55 AM,15.8,12.2,86,30.20,9.0,Calm,Calm,-,N/A,,Clear,0,2013-01-16 06:55:00
1:15 AM,17.6,14.0,86,30.19,9.0,Calm,Calm,-,N/A,,Clear,0,2013-01-16 07:15:00
1:35 AM,15.8,14.0,93,30.19,9.0,Calm,Calm,-,N/A,,Clear,0,2013-01-16 07:35:00
1:55 AM,15.8,12.2,86,30.18,8.0,Calm,Calm,-,N/A,,Clear,0,2013-01-16 07:55:00
2:15 AM,15.8,14.0,93,30.19,8.0,Calm,Calm,-,N/A,,Clear,0,2013-01-16 08:15:00
2:35 AM,15.8,14.0,93,30.19,8.0,Calm,Calm,-,N/A,,Clear,0,2013-01-16 08:35:00
2:55 AM,15.8,14.0,93,30.18,8.0,Calm,Calm,-,N/A,,Clear,0,2013-01-16 08:55:00
3:15 AM,15.8,12.2,86,30.17,9.0,Calm,Calm,-,N/A,,Clear,0,2013-01-16 09:15:00
3:35 AM,14.0,12.2,93,30.16,8.0,Calm,Calm,-,N/A,,Clear,0,2013-01-16 09:35:00
3:55 AM,15.8,14.0,93,30.15,8.0,Calm,Calm,-,N/A,,Clear,0,2013-01-16 09:55:00
4:35 AM,14.0,12.2,93,30.13,9.0,Calm,Calm,-,N/A,,Clear,0,2013-01-16 10:35:00
4:55 AM,14.0,12.2,93,30.13,8.0,Calm,Calm,-,N/A,,Clear,0,2013-01-16 10:55:00
5:15 AM,14.0,12.2,93,30.13,9.0,Calm,Calm,-,N/A,,Clear,0,2013-01-16 11:15:00
5:35 AM,15.8,14.0,93,30.12,9.0,Calm,Calm,-,N/A,,Clear,0,2013-01-16 11:35:00
5:55 AM,14.0,12.2,93,30.13,9.0,Calm,Calm,-,N/A,,Clear,0,2013-01-16 11:55:00
6:35 AM,15.8,12.2,86,30.13,9.0,SSW,4.6,-,N/A,,Clear,200,2013-01-16 12:35:00
6:55 AM,17.6,14.0,86,30.13,9.0,South,5.8,-,N/A,,Clear,190,2013-01-16 12:55:00
7:15 AM,17.6,14.0,86,30.13,9.0,South,5.8,-,N/A,,Clear,190,2013-01-16 13:15:00
7:35 AM,17.6,14.0,86,30.13,8.0,South,4.6,-,N/A,,Clear,190,2013-01-16 13:35:00
7:55 AM,17.6,14.0,86,30.12,7.0,South,6.9,-,N/A,,Clear,190,2013-01-16 13:55:00
8:15 AM,19.4,14.0,80,30.12,8.0,South,8.1,-,N/A,,Clear,190,2013-01-16 14:15:00
8:35 AM,21.2,15.8,80,30.13,8.0,South,6.9,-,N/A,,Clear,190,2013-01-16 14:35:00
8:55 AM,23.0,17.6,80,30.14,9.0,SSW,3.5,-,N/A,,Clear,210,2013-01-16 14:55:00
9:15 AM,26.6,17.6,69,30.14,9.0,SSW,8.1,-,N/A,,Clear,210,2013-01-16 15:15:00
9:35 AM,28.4,19.4,69,30.15,9.0,SW,6.9,-,N/A,,Clear,230,2013-01-16 15:35:00
9:55 AM,30.2,19.4,64,30.14,9.0,SW,8.1,-,N/A,,Clear,220,2013-01-16 15:55:00
10:15 AM,30.2,19.4,64,30.15,9.0,SSW,8.1,-,N/A,,Clear,210,2013-01-16 16:15:00
10:35 AM,32.0,19.4,60,30.14,9.0,SSW,10.4,-,N/A,,Clear,210,2013-01-16 16:35:00
10:55 AM,32.0,19.4,60,30.13,9.0,SSW,11.5,-,N/A,,Clear,210,2013-01-16 16:55:00
11:15 AM,33.8,21.2,60,30.12,9.0,SW,8.1,16.1,N/A,,Clear,220,2013-01-16 17:15:00
11:35 AM,35.6,21.2,56,30.11,9.0,SW,10.4,-,N/A,,Clear,220,2013-01-16 17:35:00
11:55 AM,35.6,21.2,56,30.10,10.0,WSW,15.0,-,N/A,,Clear,240,2013-01-16 17:55:00
12:15 PM,37.4,23.0,56,30.08,8.0,SW,12.7,-,N/A,,Clear,230,2013-01-16 18:15:00
12:35 PM,37.4,23.0,56,30.08,10.0,SSW,12.7,17.3,N/A,,Clear,210,2013-01-16 18:35:00
12:55 PM,37.4,23.0,56,30.07,9.0,SW,11.5,-,N/A,,Clear,230,2013-01-16 18:55:00
1:15 PM,39.2,24.8,56,30.07,10.0,SW,11.5,-,N/A,,Clear,220,2013-01-16 19:15:00
1:35 PM,39.2,23.0,52,30.06,9.0,SW,11.5,-,N/A,,Clear,220,2013-01-16 19:35:00
2:15 PM,41.0,23.0,49,30.07,10.0,SW,11.5,-,N/A,,Clear,230,2013-01-16 20:15:00
2:35 PM,41.0,24.8,53,30.07,9.0,WSW,12.7,16.1,N/A,,Clear,240,2013-01-16 20:35:00
2:55 PM,42.8,23.0,46,30.06,10.0,SW,11.5,18.4,N/A,,Partly Cloudy,230,2013-01-16 20:55:00
3:15 PM,41.0,23.0,49,30.06,10.0,SW,11.5,17.3,N/A,,Mostly Cloudy,230,2013-01-16 21:15:00
3:35 PM,42.8,23.0,46,30.07,10.0,SW,11.5,19.6,N/A,,Mostly Cloudy,230,2013-01-16 21:35:00
3:55 PM,39.2,23.0,52,30.07,10.0,WSW,12.7,-,N/A,,Overcast,240,2013-01-16 21:55:00
4:35 PM,39.2,26.6,61,30.09,10.0,SW,9.2,-,N/A,,Overcast,230,2013-01-16 22:35:00
4:55 PM,39.2,24.8,56,30.09,10.0,SW,6.9,-,N/A,,Overcast,230,2013-01-16 22:55:00
5:15 PM,39.2,26.6,61,30.09,10.0,WSW,5.8,-,N/A,,Mostly Cloudy,250,2013-01-16 23:15:00
5:35 PM,35.6,26.6,70,30.10,10.0,Calm,Calm,-,N/A,,Partly Cloudy,0,2013-01-16 23:35:00
5:55 PM,37.4,26.6,65,30.11,10.0,Calm,Calm,-,N/A,,Mostly Cloudy,0,2013-01-16 23:55:00
6:15 PM,35.6,26.6,70,30.11,10.0,Calm,Calm,-,N/A,,Partly Cloudy,0,2013-01-17 00:15:00
6:35 PM,35.6,26.6,70,30.12,10.0,SW,3.5,-,N/A,,Clear,220,2013-01-17 00:35:00
6:55 PM,35.6,24.8,65,30.12,10.0,SW,8.1,-,N/A,,Clear,230,2013-01-17 00:55:00
7:15 PM,35.6,24.8,65,30.12,10.0,SW,5.8,-,N/A,,Clear,220,2013-01-17 01:15:00
7:35 PM,33.8,24.8,70,30.11,10.0,Calm,Calm,-,N/A,,Clear,0,2013-01-17 01:35:00
7:55 PM,33.8,24.8,70,30.12,10.0,Calm,Calm,-,N/A,,Clear,0,2013-01-17 01:55:00
8:15 PM,32.0,26.6,80,30.12,10.0,Calm,Calm,-,N/A,,Clear,0,2013-01-17 02:15:00
8:35 PM,33.8,24.8,70,30.12,10.0,Calm,Calm,-,N/A,,Clear,0,2013-01-17 02:35:00
8:55 PM,32.0,26.6,80,30.12,10.0,Calm,Calm,-,N/A,,Clear,0,2013-01-17 02:55:00
9:15 PM,32.0,24.8,75,30.13,10.0,Calm,Calm,-,N/A,,Clear,0,2013-01-17 03:15:00
9:35 PM,32.0,24.8,75,30.13,10.0,Calm,Calm,-,N/A,,Clear,0,2013-01-17 03:35:00
9:55 PM,32.0,24.8,75,30.13,10.0,Calm,Calm,-,N/A,,Clear,0,2013-01-17 03:55:00
10:15 PM,32.0,24.8,75,30.14,10.0,Calm,Calm,-,N/A,,Clear,0,2013-01-17 04:15:00
10:35 PM,32.0,24.8,75,30.14,10.0,Calm,Calm,-,N/A,,Clear,0,2013-01-17 04:35:00
10:55 PM,32.0,24.8,75,30.14,10.0,Calm,Calm,-,N/A,,Clear,0,2013-01-17 04:55:00
11:15 PM,32.0,24.8,75,30.14,10.0,Calm,Calm,-,N/A,,Clear,0,2013-01-17 05:15:00
11:35 PM,32.0,24.8,75,30.14,10.0,SW,4.6,-,N/A,,Clear,230,2013-01-17 05:35:00
11:55 PM,32.0,24.8,75,30.15,10.0,Calm,Calm,-,N/A,,Clear,0,2013-01-17 05:55:00